Regional Weather Roundup
Issued by NWS

Home | Current Version | Previous Version | Text Only | Print | Product List | Glossary Off
Versions: 1 2 3 4 5 6 7 8 9 10 11 12 13 14 15 16 17 18 19 20 21 22 23 24 25 26 27 28 29 30 31 32 33 34 35 36 37 38 39 40 41 42 43 44 45 46 47 48 49 50

617
ASUS45 KPSR 031210
RWRAZ

ARIZONA HOURLY REGIONAL WEATHER ROUNDUP
NATIONAL WEATHER SERVICE PHOENIX AZ
500 AM MST SAT DEC 03 2016

NOTE: FAIR INDICATES FEW OR NO CLOUDS BELOW 12,000 FEET WITH NO
SIGNIFICANT WEATHER AND/OR OBSTRUCTIONS TO VISIBILITY.

AZZ001>003-036-031300-
NORTHWEST ARIZONA

CITY           SKY/WX    TMP DP  RH WIND       PRES   REMARKS
BULLHEAD CITY  CLEAR     48  14  25 N30G37    30.12R
KINGMAN        CLEAR     34  11  38 NE16G22   30.12R WCI  24
6HR MIN TEMP:  30; 6HR MAX TEMP:  38;

$$

AZZ004>008-015-016-018-031300-
NORTH CENTRAL ARIZONA

CITY           SKY/WX    TMP DP  RH WIND       PRES   REMARKS
GRAND CANYON   CLEAR    N/A N/A N/A NE5       30.09S
PRESCOTT       CLEAR     27  18  69 CALM      30.04R
6HR MIN TEMP:  23; 6HR MAX TEMP:  30;

FLAGSTAFF      CLEAR     24  13  62 NE20G29   30.04R WCI  10
6HR MIN TEMP:  24; 6HR MAX TEMP:  27;

PAYSON         CLEAR     34  18  51 NE13      29.99F WCI  25
PAGE           CLEAR     30  10  43 CALM      30.16S
6HR MIN TEMP:  30; 6HR MAX TEMP:  37;

$$

AZZ009>014-017-031300-
NORTHEAST ARIZONA

CITY           SKY/WX    TMP DP  RH WIND       PRES   REMARKS
WINSLOW        CLEAR     27  16  63 NW9       30.10F WCI  18
6HR MIN TEMP:  27; 6HR MAX TEMP:  30;

SAINT JOHNS    PTCLDY    19  16  88 SE3       30.04S
6HR MIN TEMP:  18; 6HR MAX TEMP:  30;

WINDOW ROCK    CLEAR     18  12  77 CALM      30.08F
6HR MIN TEMP:  17; 6HR MAX TEMP:  27;

SHOW LOW       PTCLDY    16  14  93 CALM      30.04S
$$

AZZ023-031300-
GREATER PHOENIX AREA

CITY           SKY/WX    TMP DP  RH WIND       PRES   REMARKS
PHOENIX        CLEAR     44  31  60 W5        29.90S
6HR MIN TEMP:  44; 6HR MAX TEMP:  51;

BUCKEYE          N/A     45  25  45 N9        29.94S
LUKE AFB       CLEAR     43  29  58 N5        29.90S
6HR MIN TEMP:  43; 6HR MAX TEMP:  51;

DEER VALLEY    CLEAR     50  21  32 N9        29.90S
6HR MIN TEMP:  48; 6HR MAX TEMP:  55;

SCOTTSDALE     CLEAR     53  20  27 W6        29.91S
6HR MIN TEMP:  47; 6HR MAX TEMP:  56;

MESA-GATEWAY   CLEAR     36  28  75 SE3       29.91S
$$

AZZ027-028-031300-
SOUTHWEST MARICOPA COUNTY AND PINAL COUNTY

CITY           SKY/WX    TMP DP  RH WIND       PRES   REMARKS
CASA GRANDE    NOT AVBL
$$

AZZ503-504-507>509-031300-
SOUTHEAST ARIZONA

CITY           SKY/WX    TMP DP  RH WIND       PRES   REMARKS
TUCSON         CLEAR     41  23  48 W3        29.87F
6HR MIN TEMP:  40; 6HR MAX TEMP:  50;

DAVIS-MONTHAN  PTCLDY    42  27  55 N2        29.86F
6HR MIN TEMP:  38; 6HR MAX TEMP:  49;

NOGALES        CLOUDY    39  35  86 SE7       29.85R WCI  34
6HR MIN TEMP:  38; 6HR MAX TEMP:  43; 6HR PCP:  0.01;

SIERRA VISTA   CLOUDY    39  33  80 N2        29.89S
6HR MIN TEMP:  36; 6HR MAX TEMP:  40; 6HR PCP:  0.01;

DOUGLAS        MOCLDY    39  38  96 N6        29.88F WCI  35
6HR MIN TEMP:  38; 6HR MAX TEMP:  40; 6HR PCP:  0.03;

SAFFORD        CLOUDY    44  40  85 E8        29.93F
6HR MIN TEMP:  44; 6HR MAX TEMP:  48; 6HR PCP:  0.01;

$$

AZZ020-021-025-026-031-031300-
SOUTHWEST ARIZONA

CITY           SKY/WX    TMP DP  RH WIND       PRES   REMARKS
YUMA           CLEAR     54  16  22 N15G24    29.99S
6HR MIN TEMP:  54; 6HR MAX TEMP:  58;

$$

CAZ031-033-041-043-047-048-061-031300-
SOUTHERN CALIFORNIA

CITY           SKY/WX    TMP DP  RH WIND       PRES   REMARKS
DOWNTOWN L.A.  CLEAR     45  23  42 CALM      30.07F
6HR MIN TEMP:  45; 6HR MAX TEMP:  52;

L.A. AIRPORT   CLEAR     49  20  31 NE5       30.08S
6HR MIN TEMP:  48; 6HR MAX TEMP:  58;

SAN DIEGO      CLEAR     50  17  27 N5        30.08R
6HR MIN TEMP:  50; 6HR MAX TEMP:  56;

BURBANK        CLEAR     54   1  11 N5        30.06S
6HR MIN TEMP:  51; 6HR MAX TEMP:  59;

ONTARIO        PTCLDY    47  12  24 N6        30.07F
6HR MIN TEMP:  43; 6HR MAX TEMP:  56;

RIVERSIDE      CLEAR     53  11  18 VRB6      30.11F
6HR MIN TEMP:  53; 6HR MAX TEMP:  56;

PALM SPRINGS   CLEAR     55  10  16 NE9       30.13F
6HR MIN TEMP:  55; 6HR MAX TEMP:  57;

EL CENTRO NAS  CLEAR     53  16  23 N15       30.06S
6HR MIN TEMP:  52; 6HR MAX TEMP:  57;

IMPERIAL       CLEAR     55  26  32 N17       30.04R
6HR MIN TEMP:  54; 6HR MAX TEMP:  57;

BLYTHE         PTCLDY    51  15  23 N16       30.05F
6HR MIN TEMP:  51; 6HR MAX TEMP:  57;

NEEDLES        CLEAR     51  14  22 N23G35    30.12
6HR MIN TEMP:  51; 6HR MAX TEMP:  54;

$$

NVZ020-UTZ003-031300-
SOUTHERN NEVADA-UTAH

CITY           SKY/WX    TMP DP  RH WIND       PRES   REMARKS
LAS VEGAS      CLEAR     45  10  24 N20G28    30.22
6HR MIN TEMP:  44; 6HR MAX TEMP:  46;

SALT LAKE CITY MOCLDY    28  20  71 SE9       30.26F WCI  19
6HR MIN TEMP:  25; 6HR MAX TEMP:  28;

$$

NMZ009-TXZ055-031300-
NEW MEXICO-WEST TEXAS

CITY           SKY/WX    TMP DP  RH WIND       PRES   REMARKS
ALBUQUERQUE    FLURRIES  33  31  92 W3        30.07S
6HR MIN TEMP:  32; 6HR MAX TEMP:  35; 6HR PCP: TRACE;

EL PASO        CLOUDY    43  36  76 N16       29.92F
6HR MIN TEMP:  43; 6HR MAX TEMP:  49; 6HR PCP:  0.03;

$$


........................KEY........................
SKY/WX - SKY CONDITION/WEATHER
TMP    - TEMPERATURE IN FAHRENHEIT
DP     - DEW POINT IN FAHRENHEIT
RH     - RELATIVE HUMIDITY IN PERCENT
WIND   - DIRECTION AND SPEED IN MILES PER HOUR (MPH)
VRB    - VARIABLE WIND DIRECTION
PRES   - MEAN SEA LEVEL PRESSURE IN INCHES OF MERCURY
         F - FALLING PRESSURE   R - RISING PRESSURE
         S - STEADY PRESSURE
VSB    - VISIBILITY IN MILES
HX     - HEAT INDEX IN FAHRENHEIT
WCI    - WIND CHILL INDEX IN FAHRENHEIT
TC     - TEMPERATURE IN CELSIUS WHICH IS ALSO KNOWN AS
         TEMPERATURE IN CENTIGRADE
AFB    - AIR FORCE BASE
         LUKE AFB IS LUKE AIR FORCE BASE
         DAVIS-MONTHAN IS DAVIS-MONTHAN AIR FORCE BASE
NAS    - NAVAL AIR STATION
         EL CENTRO NAS IS EL CENTRO NAVAL AIR STATION
N/A    - NOT AVAILABLE





USA.gov is the U.S. government's official web portal to all federal, state and local government web resources and services.